Zurück zum Katalog

SL-12 R/B(2)

AktivMEO
NORAD 14984·ROCKET BODY·🇷🇺 Russia

Gestartet May 19, 1984 von Baikonur Cosmodrome

Loading…

Nächste Überflüge (nächste 24 Stunden)

TLE

AlterndSource: Space-Track

Epoche: Aug 22, 2026, 20:20 UTC

1 14984U 84047F   26234.84780603 -.00000079  00000-0  00000+0 0  9998
2 14984  66.3553 326.2613 0010533 227.3801 135.0770  2.13163326328973

Verfolge SL-12 R/B(2) in Echtzeit mit AllMySat

Download on the App Store